Location: *
(58.4167°N, 22.5000°E)
Time: 02:02:31
(UTC+00:00)

Cosmos 1953 - Pass Details

Date: 22 September 2019
Orbit: 541 x 557 km, 82.5° (Epoch: 15 October)

Event Time Altitude Azimuth Distance (km) Brightness Sun altitude
Exits shadow 19:30:19 41° 49° (NE) 816 3.0 -22.3°
Drops below altitude 10° 19:33:16 10° 20° (NNE) 1,850 5.3 -22.6°
Sets 19:35:29 0° 16° (NNE) 2,752 6.3 -22.8°
